カタログに戻る

DELTA 1 DEB

運用中SSO
NORAD 14471·DEBRIS·🇺🇸 United States

打ち上げ Jul 29, 1976 から Vandenberg Space Force Base

Loading…

次のパス (今後24時間)

TLE

最新Source: Space-Track

元期: Sep 14, 2026, 09:26 UTC

1 14471U 76077EN  26257.39369635  .00000042  00000-0  75790-3 0  9997
2 14471 102.4653 229.3973 0130409  75.9723  77.8971 12.25634299950157

AllMySatでDELTA 1 DEBをリアルタイム追跡

Download on the App Store